Weather History for KAWG - December, 2012

Change the Weather History Date:

Friday, December 7, 2012

  Actual Average Record
Temperature  
Mean Temperature 38 °F -  
Max Temperature 41 °F 38 °F 50 °F (2001)
Min Temperature 35 °F 24 °F -5 °F (2005)
Degree Days  
Heating Degree Days 27    
Moisture  
Dew Point 34 °F    
Average Humidity 87    
Maximum Humidity 93    
Minimum Humidity 81    
Precipitation  
Precipitation 0.07 in - - ()
Sea Level Pressure  
Sea Level Pressure 29.93 in    
Wind  
Wind Speed 6 mph (NNE)    
Max Wind Speed 12 mph    
Max Gust Speed -    
Visibility 8 miles    
Events Rain    
Averages and records for this station are not official NWS values.
T = Trace of Precipitation, MM = Missing Value Source: NWS Daily Summary

Daily Weather History Graph

Daily Weather History Graph

Search for Another Location

Airport or City:

Trip Planner

Search our weather history database for the weather conditions in past years. The results will help you decide how hot, cold, wet, or windy it might be!

Date:

Astronomy

Dec. 07, 2012 Rise Set
Actual Time 7:19 AM CST 4:37 PM CST
Civil Twilight 6:48 AM CST 5:08 PM CST
Nautical Twilight 6:13 AM CST 5:43 PM CST
Astronomical Twilight 5:40 AM CST 6:16 PM CST
Moon 12:35 AM CST (12/7) 12:37 PM CST (12/7)
Length of Visible Light 10h 20m
Length of Day
9h 18m
Last Quarter, 38% of the Moon is Illuminated
Dec 7
Last Quarter
Dec 13
New
Dec 19
First Quarter
Dec 28
Full
Jan 4
Last Quarter

Hourly Weather History & Observations

Time (CST) Temp. Windchill Dew Point Humidity Pressure Visibility Wind Dir Wind Speed Gust Speed Precip Events Conditions
12:15 AM 41.0 °F 39.0 °F 39.2 °F 93% 29.96 in 7.0 mi NNW 3.5 mph - N/A   Drizzle
12:35 AM 41.0 °F 38.0 °F 39.2 °F 93% 29.95 in 10.0 mi North 4.6 mph - 0.01 in   Drizzle
12:55 AM 39.2 °F 35.0 °F 37.4 °F 93% 29.96 in 10.0 mi NNW 5.8 mph - 0.01 in   Overcast
1:15 AM 39.2 °F 35.0 °F 37.4 °F 93% 29.95 in 10.0 mi North 5.8 mph - N/A   Overcast
1:35 AM 39.2 °F 35.0 °F 35.6 °F 87% 29.95 in 10.0 mi North 5.8 mph - N/A   Overcast
1:55 AM 39.2 °F 37.0 °F 35.6 °F 87% 29.96 in 10.0 mi North 3.5 mph - N/A   Overcast
2:15 AM 39.2 °F 37.0 °F 35.6 °F 87% 29.96 in 10.0 mi North 3.5 mph - N/A   Overcast
2:35 AM 39.2 °F - 35.6 °F 87% 29.97 in 10.0 mi Calm Calm - N/A   Overcast
2:55 AM 39.2 °F 35.9 °F 35.6 °F 87% 29.96 in 10.0 mi NNW 4.6 mph - N/A   Unknown
3:15 AM 39.2 °F 37.0 °F 33.8 °F 81% 29.96 in 10.0 mi North 3.5 mph - N/A   Overcast
3:35 AM 39.2 °F 35.0 °F 33.8 °F 81% 29.95 in 10.0 mi North 5.8 mph - N/A   Overcast
3:55 AM 39.2 °F 35.9 °F 33.8 °F 81% 29.95 in 10.0 mi NNW 4.6 mph - N/A   Overcast
4:15 AM 39.2 °F 34.2 °F 33.8 °F 81% 29.95 in 10.0 mi North 6.9 mph - N/A   Overcast
4:35 AM 39.2 °F 34.2 °F 33.8 °F 81% 29.95 in 10.0 mi North 6.9 mph - N/A   Overcast
4:55 AM 37.4 °F 30.8 °F 33.8 °F 87% 29.95 in 10.0 mi North 9.2 mph - N/A   Overcast
5:15 AM 37.4 °F 30.8 °F 33.8 °F 87% 29.94 in 10.0 mi North 9.2 mph - N/A   Overcast
5:35 AM 37.4 °F 30.8 °F 32.0 °F 81% 29.95 in 10.0 mi North 9.2 mph - N/A   Overcast
5:55 AM 37.4 °F 32.8 °F 32.0 °F 81% 29.95 in 10.0 mi NNE 5.8 mph - N/A   Overcast
6:15 AM 37.4 °F 32.1 °F 33.8 °F 87% 29.95 in 10.0 mi NNE 6.9 mph - N/A   Overcast
6:35 AM 37.4 °F 32.8 °F 32.0 °F 81% 29.95 in 10.0 mi NNE 5.8 mph - N/A   Overcast
6:55 AM 37.4 °F 31.4 °F 32.0 °F 81% 29.95 in 10.0 mi NNE 8.1 mph - N/A   Overcast
7:15 AM 37.4 °F 32.1 °F 32.0 °F 81% 29.95 in 10.0 mi NNE 6.9 mph - N/A   Overcast
7:35 AM 37.4 °F 32.8 °F 32.0 °F 81% 29.95 in 10.0 mi NNE 5.8 mph - N/A   Overcast
7:55 AM 37.4 °F 31.4 °F 32.0 °F 81% 29.95 in 10.0 mi NNE 8.1 mph - N/A   Overcast
8:15 AM 37.4 °F 32.1 °F 32.0 °F 81% 29.95 in 10.0 mi NE 6.9 mph - N/A   Overcast
8:35 AM 37.4 °F 32.1 °F 33.8 °F 87% 29.96 in 10.0 mi NE 6.9 mph - N/A   Overcast
8:55 AM 37.4 °F 31.4 °F 32.0 °F 81% 29.95 in 10.0 mi NE 8.1 mph - N/A   Overcast
9:15 AM 37.4 °F 30.8 °F 33.8 °F 87% 29.95 in 10.0 mi NE 9.2 mph - N/A   Overcast
9:35 AM 37.4 °F 30.8 °F 33.8 °F 87% 29.94 in 10.0 mi ENE 9.2 mph - N/A   Overcast
9:55 AM 39.2 °F 32.0 °F 33.8 °F 81% 29.94 in 10.0 mi ENE 11.5 mph - N/A   Overcast
10:15 AM 39.2 °F 33.0 °F 33.8 °F 81% 29.94 in 10.0 mi ENE 9.2 mph - N/A   Overcast
10:35 AM 39.2 °F 33.6 °F 33.8 °F 81% 29.94 in 10.0 mi NE 8.1 mph - N/A   Overcast
10:55 AM 39.2 °F 33.6 °F 33.8 °F 81% 29.93 in 10.0 mi ENE 8.1 mph - N/A   Overcast
11:15 AM 39.2 °F 34.2 °F 33.8 °F 81% 29.94 in 10.0 mi NNE 6.9 mph - N/A   Overcast
11:35 AM 39.2 °F 33.6 °F 33.8 °F 81% 29.94 in 10.0 mi NNE 8.1 mph - N/A   Overcast
11:55 AM 39.2 °F 35.0 °F 33.8 °F 81% 29.93 in 10.0 mi ENE 5.8 mph - N/A   Overcast
12:15 PM 39.2 °F 33.6 °F 33.8 °F 81% 29.92 in 10.0 mi ENE 8.1 mph - N/A   Overcast
12:35 PM 39.2 °F 34.2 °F 33.8 °F 81% 29.92 in 10.0 mi ENE 6.9 mph - N/A   Overcast
12:55 PM 39.2 °F 34.2 °F 35.6 °F 87% 29.91 in 7.0 mi ENE 6.9 mph - N/A Rain Light Rain
1:15 PM 39.2 °F 34.2 °F 35.6 °F 87% 29.91 in 7.0 mi East 6.9 mph - N/A Rain Light Rain
1:35 PM 39.2 °F 33.6 °F 35.6 °F 87% 29.91 in 7.0 mi ENE 8.1 mph - N/A   Overcast
1:55 PM 39.2 °F 34.2 °F 35.6 °F 87% 29.90 in 7.0 mi East 6.9 mph - N/A   Overcast
2:15 PM 39.2 °F 33.0 °F 35.6 °F 87% 29.89 in 7.0 mi East 9.2 mph - N/A   Overcast
2:35 PM 39.2 °F 35.0 °F 35.6 °F 87% 29.89 in 7.0 mi ENE 5.8 mph - N/A   Overcast
2:55 PM 39.2 °F 35.0 °F 35.6 °F 87% 29.88 in 7.0 mi ENE 5.8 mph - N/A   Overcast
3:15 PM 39.2 °F 35.0 °F 35.6 °F 87% 29.89 in 7.0 mi ENE 5.8 mph - N/A   Overcast
3:35 PM 39.2 °F 33.6 °F 35.6 °F 87% 29.89 in 7.0 mi NE 8.1 mph - N/A   Overcast
3:55 PM 39.2 °F 34.2 °F 35.6 °F 87% 29.89 in 7.0 mi NE 6.9 mph - N/A   Overcast
4:15 PM 39.2 °F 35.0 °F 35.6 °F 87% 29.89 in 7.0 mi NE 5.8 mph - N/A   Overcast
4:35 PM 39.2 °F 35.0 °F 35.6 °F 87% 29.89 in 7.0 mi NE 5.8 mph - N/A Rain Rain
4:55 PM 39.2 °F 35.0 °F 35.6 °F 87% 29.91 in 5.0 mi NNW 5.8 mph - N/A Rain Light Rain
5:15 PM 39.2 °F 34.2 °F 35.6 °F 87% 29.91 in 4.0 mi North 6.9 mph - N/A Rain Rain
5:35 PM 39.2 °F 34.2 °F 35.6 °F 87% 29.92 in 4.0 mi North 6.9 mph - 0.02 in Rain Light Rain
5:55 PM 37.4 °F 30.8 °F 35.6 °F 93% 29.91 in 7.0 mi NNE 9.2 mph - 0.03 in   Overcast
6:15 PM 37.4 °F 31.4 °F 35.6 °F 93% 29.92 in 7.0 mi North 8.1 mph - N/A   Light Drizzle
6:35 PM 37.4 °F 29.8 °F 33.8 °F 87% 29.92 in 7.0 mi North 11.5 mph - N/A Rain Rain
7:15 PM 37.4 °F 30.8 °F 33.8 °F 87% 29.92 in 5.0 mi North 9.2 mph - N/A   Overcast
7:35 PM 37.4 °F 31.4 °F 35.6 °F 93% 29.93 in 4.0 mi North 8.1 mph - N/A Rain Light Rain
8:35 PM 35.6 °F 28.0 °F 33.8 °F 93% 29.90 in 10.0 mi ENE 10.4 mph - N/A Rain Light Rain
8:55 PM 35.6 °F 29.2 °F 33.8 °F 93% 29.91 in 10.0 mi ENE 8.1 mph - N/A   Overcast
9:15 PM 35.6 °F 29.9 °F 33.8 °F 93% 29.92 in 10.0 mi ENE 6.9 mph - N/A Rain Light Rain
9:35 PM 35.6 °F 29.9 °F 33.8 °F 93% 29.91 in 7.0 mi East 6.9 mph - N/A Rain Light Rain
9:55 PM 35.6 °F 31.7 °F 33.8 °F 93% 29.92 in 5.0 mi East 4.6 mph - 0.01 in Rain Light Rain
10:15 PM 35.6 °F 31.7 °F 33.8 °F 93% 29.92 in 7.0 mi East 4.6 mph - 0.01 in Rain Rain
10:35 PM 35.6 °F 31.7 °F 33.8 °F 93% 29.92 in 10.0 mi NE 4.6 mph - 0.02 in Rain Rain
10:55 PM 35.6 °F 30.7 °F 33.8 °F 93% 29.91 in 7.0 mi NNE 5.8 mph - 0.02 in   Light Drizzle
11:15 PM 35.6 °F 28.6 °F 33.8 °F 93% 29.94 in 7.0 mi NNW 9.2 mph - N/A   Light Drizzle
11:35 PM 35.6 °F 28.0 °F 33.8 °F 93% 29.94 in 7.0 mi North 10.4 mph - N/A   Overcast
11:55 PM 35.6 °F 28.0 °F 33.8 °F 93% 29.94 in 5.0 mi North 10.4 mph - N/A   Overcast